Location: Beaurecueil
(43.5122°N, 5.5450°E)
Time: 01:13:42
(UTC+00:00)

Cosmos 494 Rocket - Pass Details

Date: 18 September 2020
Orbit: 741 x 771 km, 74.1° (Epoch: 26 October)

Event Time Altitude Azimuth Distance (km) Brightness Sun altitude
Rises 19:57:53 0° 340° (NNW) 3,244 7.9 -24.5°
Reaches altitude 10° 20:00:16 10° 342° (NNW) 2,317 7.1 -24.9°
Maximum altitude 20:05:33 78° 69° (ENE) 792 3.9 -25.7°
Enters shadow 20:05:36 78° 77° (ENE) 793 3.8 -25.7°
